| time (UTC) | temp F | wind direction | speed MPH | gust MPH | rain 1hr in | rain 24hr in | rain mn in | humidity % | barometer mb |
| 20260510133005 | 48 | 295 | 1.0 | 3.0 | 0.00 | 0.00 | 0.00 | 59 | 1017.7 |
| 20260510132505 | 47 | 295 | 1.0 | 3.0 | 0.00 | 0.00 | 0.00 | 59 | 1017.7 |
| 20260510132006 | 47 | 295 | 1.0 | 3.0 | 0.00 | 0.00 | 0.00 | 60 | 1017.6 |
| 20260510131505 | 46 | 295 | 1.0 | 3.0 | 0.00 | 0.00 | 0.00 | 61 | 1017.6 |
| 20260510131005 | 45 | 295 | 0.0 | 3.0 | 0.00 | 0.00 | 0.00 | 63 | 1017.6 |
| 20260510130505 | 45 | 289 | 1.0 | 1.0 | 0.00 | 0.00 | 0.00 | 63 | 1017.5 |
| 20260510130005 | 44 | 289 | 1.0 | 2.0 | 0.00 | 0.00 | 0.00 | 63 | 1017.5 |
| 20260510125510 | 44 | 289 | 1.0 | 3.0 | 0.00 | 0.00 | 0.00 | 64 | 1017.4 |
| 20260510125006 | 43 | 289 | 2.0 | 3.0 | 0.00 | 0.00 | 0.00 | 66 | 1017.2 |
| 20260510124505 | 43 | 289 | 0.0 | 1.0 | 0.00 | 0.00 | 0.00 | 70 | 1017.2 |
| 20260510124006 | 42 | 289 | 0.0 | 1.0 | 0.00 | 0.00 | 0.00 | 72 | 1017.1 |
| 20260510122505 | 40 | 289 | 0.0 | 0.0 | 0.00 | 0.00 | 0.00 | 78 | 1016.9 |
| 20260510122005 | 39 | 289 | 0.0 | 0.0 | 0.00 | 0.00 | 0.00 | 78 | 1016.9 |
| 20260510121505 | 38 | 289 | 0.0 | 0.0 | 0.00 | 0.00 | 0.00 | 78 | 1016.8 |
| 20260510121005 | 38 | 289 | 0.0 | 0.0 | 0.00 | 0.00 | 0.00 | 79 | 1016.8 |
| 20260510120505 | 37 | 289 | 0.0 | 0.0 | 0.00 | 0.00 | 0.00 | 80 | 1016.7 |
| 20260510120005 | 37 | 289 | 0.0 | 0.0 | 0.00 | 0.00 | 0.00 | 81 | 1016.6 |
| 20260510115505 | 36 | 289 | 0.0 | 0.0 | 0.00 | 0.00 | 0.00 | 82 | 1016.6 |
| 20260510115005 | 36 | 289 | 0.0 | 0.0 | 0.00 | 0.00 | 0.00 | 82 | 1016.7 |
| 20260510114005 | 36 | 289 | 0.0 | 0.0 | 0.00 | 0.00 | 0.00 | 83 | 1016.7 |
| 20260510113505 | 35 | 289 | 0.0 | 0.0 | 0.00 | 0.00 | 0.00 | 82 | 1016.6 |
| 20260510113005 | 35 | 289 | 0.0 | 0.0 | 0.00 | 0.00 | 0.00 | 83 | 1016.4 |
| 20260510112505 | 35 | 289 | 0.0 | 0.0 | 0.00 | 0.00 | 0.00 | 83 | 1016.4 |
| 20260510112005 | 35 | 289 | 0.0 | 0.0 | 0.00 | 0.00 | 0.00 | 83 | 1016.4 |
| 20260510111005 | 35 | 289 | 0.0 | 0.0 | 0.00 | 0.00 | 0.00 | 83 | 1016.4 |
| 20260510110505 | 35 | 289 | 0.0 | 0.0 | 0.00 | 0.00 | 0.00 | 83 | 1016.5 |
| 20260510105505 | 35 | 289 | 0.0 | 0.0 | 0.00 | 0.00 | 0.00 | 82 | 1016.4 |
| 20260510105005 | 35 | 289 | 0.0 | 0.0 | 0.00 | 0.00 | 0.00 | 82 | 1016.3 |
| 20260510104506 | 35 | 289 | 0.0 | 0.0 | 0.00 | 0.00 | 0.00 | 81 | 1016.2 |
| 20260510104005 | 35 | 289 | 0.0 | 0.0 | 0.00 | 0.00 | 0.00 | 81 | 1016.1 |
| 20260510103505 | 35 | 289 | 0.0 | 0.0 | 0.00 | 0.00 | 0.00 | 80 | 1016.1 |
| 20260510103005 | 35 | 289 | 0.0 | 0.0 | 0.00 | 0.00 | 0.00 | 80 | 1016.0 |
| 20260510102505 | 36 | 289 | 0.0 | 0.0 | 0.00 | 0.00 | 0.00 | 80 | 1016.0 |
| 20260510102005 | 36 | 289 | 0.0 | 0.0 | 0.00 | 0.00 | 0.00 | 79 | 1015.9 |
| 20260510101505 | 36 | 289 | 0.0 | 0.0 | 0.00 | 0.00 | 0.00 | 78 | 1015.8 |
| 20260510101005 | 36 | 289 | 0.0 | 0.0 | 0.00 | 0.00 | 0.00 | 78 | 1015.8 |
| 20260510100505 | 36 | 289 | 0.0 | 0.0 | 0.00 | 0.00 | 0.00 | 79 | 1015.7 |
| 20260510095505 | 36 | 289 | 0.0 | 0.0 | 0.00 | 0.00 | 0.00 | 78 | 1015.5 |
| 20260510094505 | 37 | 289 | 0.0 | 0.0 | 0.00 | 0.00 | 0.00 | 75 | 1015.4 |
| 20260510094006 | 37 | 289 | 0.0 | 0.0 | 0.00 | 0.00 | 0.00 | 75 | 1015.4 |
| 20260510093507 | 37 | 289 | 0.0 | 0.0 | 0.00 | 0.00 | 0.00 | 74 | 1015.3 |
| 20260510093007 | 37 | 289 | 0.0 | 0.0 | 0.00 | 0.00 | 0.00 | 74 | 1015.3 |
| 20260510092506 | 38 | 289 | 0.0 | 0.0 | 0.00 | 0.00 | 0.00 | 74 | 1015.3 |
| 20260510092006 | 38 | 289 | 0.0 | 0.0 | 0.00 | 0.00 | 0.00 | 76 | 1015.3 |
| 20260510091006 | 38 | 289 | 0.0 | 0.0 | 0.00 | 0.00 | 0.00 | 70 | 1015.2 |
| 20260510090506 | 38 | 289 | 0.0 | 0.0 | 0.00 | 0.00 | 0.00 | 70 | 1015.2 |
| 20260510090006 | 38 | 289 | 0.0 | 0.0 | 0.00 | 0.00 | 0.00 | 69 | 1015.1 |
| 20260510085506 | 38 | 289 | 0.0 | 0.0 | 0.00 | 0.00 | 0.00 | 69 | 1015.1 |
| 20260510085007 | 38 | 289 | 0.0 | 0.0 | 0.00 | 0.00 | 0.00 | 69 | 1015.1 |
| 20260510084006 | 39 | 289 | 0.0 | 0.0 | 0.00 | 0.00 | 0.00 | 69 | 1014.9 |
| 20260510083506 | 39 | 289 | 0.0 | 0.0 | 0.00 | 0.00 | 0.00 | 68 | 1014.8 |
| 20260510083006 | 39 | 289 | 0.0 | 0.0 | 0.00 | 0.00 | 0.00 | 68 | 1014.7 |
| 20260510082506 | 39 | 289 | 0.0 | 0.0 | 0.00 | 0.00 | 0.00 | 67 | 1014.6 |
| 20260510082006 | 40 | 289 | 0.0 | 0.0 | 0.00 | 0.00 | 0.00 | 68 | 1014.5 |
| 20260510081507 | 40 | 289 | 0.0 | 0.0 | 0.00 | 0.00 | 0.00 | 69 | 1014.4 |
| 20260510081006 | 40 | 289 | 0.0 | 0.0 | 0.00 | 0.00 | 0.00 | 67 | 1014.4 |
| 20260510080507 | 40 | 289 | 0.0 | 0.0 | 0.00 | 0.00 | 0.00 | 64 | 1014.3 |
| 20260510080006 | 40 | 289 | 0.0 | 0.0 | 0.00 | 0.00 | 0.00 | 64 | 1014.3 |
| 20260510075507 | 40 | 289 | 0.0 | 0.0 | 0.00 | 0.00 | 0.00 | 64 | 1014.2 |
| 20260510075007 | 40 | 289 | 0.0 | 0.0 | 0.00 | 0.00 | 0.00 | 63 | 1014.2 |
| 20260510074507 | 40 | 289 | 0.0 | 0.0 | 0.00 | 0.00 | 0.00 | 63 | 1014.2 |
| 20260510074006 | 41 | 289 | 0.0 | 0.0 | 0.00 | 0.00 | 0.00 | 63 | 1014.2 |
| 20260510073506 | 41 | 289 | 0.0 | 0.0 | 0.00 | 0.00 | 0.00 | 62 | 1014.2 |
| 20260510073006 | 41 | 289 | 0.0 | 0.0 | 0.00 | 0.00 | 0.00 | 63 | 1014.1 |
| 20260510072006 | 41 | 289 | 0.0 | 0.0 | 0.00 | 0.00 | 0.00 | 63 | 1014.1 |
| 20260510071506 | 41 | 289 | 0.0 | 0.0 | 0.00 | 0.00 | 0.00 | 61 | 1014.1 |
| 20260510070506 | 42 | 289 | 0.0 | 0.0 | 0.00 | 0.00 | 0.00 | 62 | 1014.2 |
| 20260510070006 | 43 | 289 | 0.0 | 0.0 | 0.00 | 0.00 | 0.00 | 64 | 1014.2 |
| 20260510065507 | 43 | 289 | 0.0 | 0.0 | 0.00 | 0.00 | 0.00 | 59 | 1014.2 |
| 20260510065006 | 43 | 289 | 0.0 | 0.0 | 0.00 | 0.00 | 0.00 | 57 | 1014.1 |
| 20260510064006 | 44 | 289 | 0.0 | 0.0 | 0.00 | 0.00 | 0.00 | 57 | 1014.1 |
| 20260510063506 | 44 | 289 | 0.0 | 0.0 | 0.00 | 0.00 | 0.00 | 56 | 1014.1 |
| 20260510063006 | 44 | 289 | 0.0 | 0.0 | 0.00 | 0.00 | 0.00 | 57 | 1014.1 |
| 20260510062006 | 45 | 289 | 0.0 | 0.0 | 0.00 | 0.00 | 0.00 | 55 | 1014.1 |
| 20260510061506 | 45 | 289 | 0.0 | 0.0 | 0.00 | 0.00 | 0.00 | 54 | 1014.1 |
| 20260510061006 | 45 | 289 | 0.0 | 0.0 | 0.00 | 0.00 | 0.00 | 54 | 1014.1 |
| 20260510060006 | 46 | 289 | 0.0 | 0.0 | 0.00 | 0.00 | 0.00 | 53 | 1014.0 |
| 20260510055507 | 46 | 289 | 0.0 | 0.0 | 0.00 | 0.00 | 0.00 | 51 | 1013.8 |
| 20260510055006 | 46 | 289 | 0.0 | 0.0 | 0.00 | 0.00 | 0.00 | 51 | 1013.8 |
| 20260510054006 | 46 | 289 | 0.0 | 1.0 | 0.00 | 0.00 | 0.00 | 50 | 1013.6 |
| 20260510053506 | 46 | 289 | 0.0 | 2.0 | 0.00 | 0.00 | 0.00 | 50 | 1013.5 |
| 20260510053006 | 46 | 289 | 0.0 | 2.0 | 0.00 | 0.00 | 0.00 | 50 | 1013.4 |
| 20260510052506 | 47 | 289 | 1.0 | 2.0 | 0.00 | 0.00 | 0.00 | 50 | 1013.4 |
| 20260510052006 | 47 | 289 | 0.0 | 2.0 | 0.00 | 0.00 | 0.00 | 50 | 1013.3 |
| 20260510051506 | 47 | 289 | 0.0 | 1.0 | 0.00 | 0.00 | 0.00 | 49 | 1013.3 |
| 20260510051006 | 47 | 289 | 0.0 | 2.0 | 0.00 | 0.00 | 0.00 | 49 | 1013.2 |
| 20260510050506 | 47 | 289 | 1.0 | 3.0 | 0.00 | 0.00 | 0.00 | 49 | 1013.1 |
| 20260510045506 | 48 | 271 | 0.0 | 1.0 | 0.00 | 0.00 | 0.00 | 49 | 1012.9 |
| 20260510045006 | 48 | 271 | 0.0 | 3.0 | 0.00 | 0.00 | 0.00 | 48 | 1012.9 |
| 20260510044506 | 48 | 271 | 0.0 | 3.0 | 0.00 | 0.00 | 0.00 | 48 | 1012.8 |
| 20260510044007 | 48 | 330 | 0.0 | 2.0 | 0.00 | 0.00 | 0.00 | 48 | 1012.8 |
| 20260510043506 | 48 | 330 | 0.0 | 2.0 | 0.00 | 0.00 | 0.00 | 47 | 1012.7 |
| 20260510043011 | 48 | 330 | 0.0 | 2.0 | 0.00 | 0.00 | 0.00 | 47 | 1012.7 |
| 20260510042506 | 48 | 330 | 0.0 | 1.0 | 0.00 | 0.00 | 0.00 | 47 | 1012.6 |
| 20260510042006 | 48 | 330 | 0.0 | 3.0 | 0.00 | 0.00 | 0.00 | 47 | 1012.6 |
| 20260510041507 | 48 | 330 | 0.0 | 0.0 | 0.00 | 0.00 | 0.00 | 46 | 1012.5 |
| 20260510041006 | 49 | 330 | 0.0 | 0.0 | 0.00 | 0.00 | 0.00 | 46 | 1012.5 |
| 20260510040506 | 49 | 330 | 0.0 | 0.0 | 0.00 | 0.00 | 0.00 | 46 | 1012.4 |
| 20260510040006 | 49 | 330 | 0.0 | 0.0 | 0.00 | 0.00 | 0.00 | 45 | 1012.3 |
| 20260510035506 | 49 | 330 | 0.0 | 1.0 | 0.00 | 0.00 | 0.00 | 45 | 1012.3 |
| 20260510035006 | 49 | 330 | 0.0 | 1.0 | 0.00 | 0.00 | 0.00 | 46 | 1012.2 |
| 20260510034506 | 49 | 330 | 0.0 | 0.0 | 0.00 | 0.00 | 0.00 | 45 | 1012.2 |
| 20260510034006 | 49 | 330 | 0.0 | 0.0 | 0.00 | 0.00 | 0.00 | 45 | 1012.2 |
| 20260510033506 | 49 | 330 | 0.0 | 2.0 | 0.00 | 0.00 | 0.00 | 44 | 1012.1 |
| 20260510033007 | 49 | 330 | 0.0 | 3.0 | 0.00 | 0.00 | 0.00 | 45 | 1012.1 |
| 20260510032506 | 49 | 330 | 0.0 | 3.0 | 0.00 | 0.00 | 0.00 | 45 | 1012.0 |
| 20260510031506 | 48 | 331 | 1.0 | 3.0 | 0.00 | 0.00 | 0.00 | 45 | 1011.9 |
| 20260510030506 | 48 | 330 | 0.0 | 0.0 | 0.00 | 0.00 | 0.00 | 47 | 1011.7 |
| 20260510025506 | 48 | 330 | 0.0 | 0.0 | 0.00 | 0.00 | 0.00 | 48 | 1011.5 |
| 20260510025006 | 48 | 331 | 0.0 | 0.0 | 0.00 | 0.00 | 0.00 | 50 | 1011.4 |
| 20260510024506 | 48 | 330 | 0.0 | 0.0 | 0.00 | 0.00 | 0.00 | 47 | 1011.4 |
| 20260510024007 | 49 | 330 | 0.0 | 0.0 | 0.00 | 0.00 | 0.00 | 46 | 1011.3 |
| 20260510023506 | 49 | 330 | 0.0 | 0.0 | 0.00 | 0.00 | 0.00 | 46 | 1011.2 |
| 20260510023007 | 49 | 331 | 0.0 | 0.0 | 0.00 | 0.00 | 0.00 | 44 | 1011.0 |
| 20260510022506 | 49 | 331 | 0.0 | 0.0 | 0.00 | 0.00 | 0.00 | 44 | 1011.0 |
| 20260510022006 | 50 | 331 | 0.0 | 0.0 | 0.00 | 0.00 | 0.00 | 44 | 1010.9 |
| 20260510021506 | 50 | 330 | 0.0 | 0.0 | 0.00 | 0.00 | 0.00 | 43 | 1010.8 |
| 20260510021007 | 50 | 330 | 0.0 | 0.0 | 0.00 | 0.00 | 0.00 | 42 | 1010.7 |
| 20260510020506 | 51 | 330 | 0.0 | 0.0 | 0.00 | 0.00 | 0.00 | 42 | 1010.6 |
| 20260510020007 | 51 | 331 | 0.0 | 0.0 | 0.00 | 0.00 | 0.00 | 41 | 1010.5 |
| 20260510015506 | 51 | 330 | 0.0 | 0.0 | 0.00 | 0.00 | 0.00 | 41 | 1010.4 |
| 20260510015006 | 52 | 330 | 0.0 | 0.0 | 0.00 | 0.00 | 0.00 | 40 | 1010.3 |
| 20260510014007 | 53 | 331 | 0.0 | 0.0 | 0.00 | 0.00 | 0.00 | 39 | 1010.1 |
| 20260510012006 | 54 | 331 | 0.0 | 2.0 | 0.00 | 0.00 | 0.00 | 36 | 1009.6 |
| 20260510011506 | 54 | 331 | 1.0 | 2.0 | 0.00 | 0.00 | 0.00 | 35 | 1009.5 |
| 20260510011006 | 55 | 331 | 0.0 | 2.0 | 0.00 | 0.00 | 0.00 | 36 | 1009.4 |
| 20260510010506 | 55 | 331 | 1.0 | 2.0 | 0.00 | 0.00 | 0.00 | 35 | 1009.3 |
| 20260510010006 | 55 | 331 | 0.0 | 3.0 | 0.00 | 0.00 | 0.00 | 34 | 1009.2 |
| 20260510004506 | 56 | 355 | 1.0 | 3.0 | 0.00 | 0.00 | 0.00 | 34 | 1009.0 |
| 20260510004006 | 57 | 357 | 1.0 | 3.0 | 0.00 | 0.00 | 0.00 | 32 | 1008.9 |
| 20260510003008 | 57 | 227 | 3.0 | 7.0 | 0.00 | 0.00 | 0.00 | 32 | 1008.8 |
| 20260510002507 | 57 | 288 | 2.0 | 7.0 | 0.00 | 0.00 | 0.00 | 31 | 1008.7 |
| 20260510002006 | 57 | 296 | 2.0 | 9.0 | 0.00 | 0.00 | 0.00 | 31 | 1008.7 |
| 20260510001506 | 58 | 298 | 3.0 | 7.0 | 0.00 | 0.00 | 0.00 | 31 | 1008.7 |
| 20260510000506 | 58 | 304 | 2.0 | 6.0 | 0.00 | 0.00 | 0.00 | 32 | 1008.4 |
| 20260509235506 | 58 | 304 | 3.0 | 7.0 | 0.00 | 0.00 | 0.00 | 32 | 1008.4 |
| 20260509235006 | 58 | 297 | 3.0 | 7.0 | 0.00 | 0.00 | 0.00 | 32 | 1008.3 |
| 20260509234506 | 58 | 282 | 2.0 | 3.0 | 0.00 | 0.00 | 0.00 | 32 | 1008.2 |
| 20260509233506 | 58 | 322 | 2.0 | 3.0 | 0.00 | 0.00 | 0.00 | 31 | 1008.2 |
| 20260509233007 | 59 | 285 | 2.0 | 3.0 | 0.00 | 0.00 | 0.00 | 31 | 1008.1 |
| 20260509232505 | 59 | 303 | 2.0 | 5.0 | 0.00 | 0.00 | 0.00 | 31 | 1008.0 |
| 20260509232006 | 59 | 287 | 2.0 | 5.0 | 0.00 | 0.00 | 0.00 | 32 | 1008.0 |
| 20260509231506 | 59 | 290 | 3.0 | 6.0 | 0.00 | 0.00 | 0.00 | 30 | 1007.9 |
| 20260509230006 | 60 | 300 | 3.0 | 6.0 | 0.00 | 0.00 | 0.00 | 30 | 1007.7 |
| 20260509225506 | 60 | 312 | 1.0 | 3.0 | 0.00 | 0.00 | 0.00 | 32 | 1007.6 |
| 20260509224506 | 60 | 282 | 3.0 | 5.0 | 0.00 | 0.00 | 0.00 | 29 | 1007.4 |
| 20260509224006 | 60 | 294 | 2.0 | 5.0 | 0.00 | 0.00 | 0.00 | 30 | 1007.4 |
| 20260509223006 | 60 | 302 | 2.0 | 8.0 | 0.00 | 0.00 | 0.00 | 31 | 1007.4 |
| 20260509222505 | 60 | 281 | 6.0 | 12.0 | 0.00 | 0.00 | 0.00 | 32 | 1007.3 |
| 20260509222006 | 60 | 297 | 4.0 | 9.0 | 0.00 | 0.00 | 0.00 | 30 | 1007.2 |
| 20260509221006 | 60 | 283 | 3.0 | 8.0 | 0.00 | 0.00 | 0.00 | 31 | 1007.1 |
| 20260509215506 | 60 | 305 | 3.0 | 8.0 | 0.00 | 0.00 | 0.00 | 32 | 1007.0 |
| 20260509215007 | 60 | 295 | 3.0 | 8.0 | 0.00 | 0.00 | 0.00 | 32 | 1006.9 |
| 20260509214506 | 60 | 298 | 3.0 | 13.0 | 0.00 | 0.00 | 0.00 | 33 | 1006.9 |
| 20260509214006 | 61 | 304 | 3.0 | 9.0 | 0.00 | 0.00 | 0.00 | 32 | 1006.8 |
| 20260509213006 | 61 | 291 | 3.0 | 8.0 | 0.00 | 0.00 | 0.00 | 33 | 1006.7 |
| 20260509212506 | 60 | 321 | 2.0 | 6.0 | 0.00 | 0.00 | 0.00 | 32 | 1006.8 |
| 20260509211506 | 60 | 287 | 5.0 | 10.0 | 0.00 | 0.00 | 0.00 | 31 | 1006.6 |
| 20260509210006 | 61 | 291 | 3.0 | 7.0 | 0.00 | 0.00 | 0.00 | 31 | 1006.4 |
| 20260509204006 | 61 | 303 | 3.0 | 8.0 | 0.00 | 0.00 | 0.00 | 32 | 1006.4 |
| 20260509203007 | 61 | 283 | 3.0 | 12.0 | 0.00 | 0.00 | 0.00 | 35 | 1006.3 |
| 20260509202506 | 61 | 289 | 3.0 | 9.0 | 0.00 | 0.00 | 0.00 | 35 | 1006.2 |
| 20260509201506 | 61 | 298 | 4.0 | 14.0 | 0.00 | 0.00 | 0.00 | 33 | 1006.2 |
| 20260509201006 | 61 | 298 | 3.0 | 12.0 | 0.00 | 0.00 | 0.00 | 34 | 1006.0 |
| 20260509200506 | 61 | 298 | 3.0 | 9.0 | 0.00 | 0.00 | 0.00 | 36 | 1005.8 |
| 20260509200005 | 61 | 300 | 2.0 | 12.0 | 0.00 | 0.00 | 0.00 | 35 | 1005.9 |
| 20260509195505 | 61 | 302 | 3.0 | 6.0 | 0.00 | 0.00 | 0.00 | 35 | 1005.9 |
| 20260509195006 | 61 | 308 | 5.0 | 12.0 | 0.00 | 0.00 | 0.00 | 33 | 1005.9 |
| 20260509194506 | 61 | 301 | 3.0 | 8.0 | 0.00 | 0.00 | 0.00 | 34 | 1005.8 |
| 20260509194006 | 61 | 302 | 4.0 | 8.0 | 0.00 | 0.00 | 0.00 | 33 | 1005.8 |
| 20260509192506 | 61 | 301 | 4.0 | 9.0 | 0.00 | 0.00 | 0.00 | 33 | 1005.6 |
| 20260509191006 | 61 | 298 | 3.0 | 10.0 | 0.00 | 0.00 | 0.00 | 37 | 1005.6 |
| 20260509190506 | 61 | 305 | 4.0 | 10.0 | 0.00 | 0.00 | 0.00 | 34 | 1005.5 |
| 20260509190006 | 60 | 306 | 4.0 | 12.0 | 0.00 | 0.00 | 0.00 | 36 | 1005.5 |
| 20260509185505 | 61 | 297 | 4.0 | 9.0 | 0.00 | 0.00 | 0.00 | 34 | 1005.4 |
| 20260509185006 | 61 | 287 | 4.0 | 9.0 | 0.00 | 0.00 | 0.00 | 37 | 1005.4 |
| 20260509184506 | 61 | 282 | 6.0 | 12.0 | 0.00 | 0.00 | 0.00 | 36 | 1005.4 |
| 20260509184006 | 61 | 286 | 3.0 | 10.0 | 0.00 | 0.00 | 0.00 | 40 | 1005.3 |
| 20260509183506 | 61 | 254 | 5.0 | 10.0 | 0.00 | 0.00 | 0.00 | 36 | 1005.2 |
| 20260509183006 | 61 | 252 | 3.0 | 10.0 | 0.00 | 0.00 | 0.00 | 37 | 1005.2 |
| 20260509182506 | 61 | 294 | 4.0 | 12.0 | 0.00 | 0.00 | 0.00 | 38 | 1005.1 |
| 20260509182006 | 61 | 309 | 2.0 | 7.0 | 0.00 | 0.00 | 0.00 | 40 | 1005.0 |
| 20260509181505 | 61 | 294 | 3.0 | 10.0 | 0.00 | 0.00 | 0.00 | 40 | 1005.0 |
| 20260509181006 | 60 | 301 | 4.0 | 13.0 | 0.00 | 0.00 | 0.00 | 41 | 1005.0 |
| 20260509180506 | 60 | 303 | 3.0 | 9.0 | 0.00 | 0.00 | 0.00 | 41 | 1005.0 |
| 20260509180005 | 60 | 290 | 5.0 | 12.0 | 0.00 | 0.00 | 0.00 | 41 | 1004.9 |
| 20260509175506 | 60 | 305 | 3.0 | 8.0 | 0.00 | 0.00 | 0.00 | 41 | 1004.9 |
| 20260509175006 | 59 | 300 | 3.0 | 9.0 | 0.00 | 0.00 | 0.00 | 42 | 1004.9 |
| 20260509174506 | 59 | 297 | 3.0 | 8.0 | 0.00 | 0.00 | 0.00 | 42 | 1004.8 |
| 20260509173506 | 59 | 287 | 3.0 | 10.0 | 0.00 | 0.00 | 0.00 | 43 | 1004.8 |
| 20260509173006 | 59 | 277 | 6.0 | 16.0 | 0.00 | 0.00 | 0.00 | 43 | 1004.8 |
| 20260509172506 | 59 | 300 | 4.0 | 9.0 | 0.00 | 0.00 | 0.00 | 44 | 1004.8 |
| 20260509172006 | 59 | 285 | 2.0 | 10.0 | 0.00 | 0.00 | 0.00 | 45 | 1004.6 |
| 20260509171006 | 59 | 302 | 3.0 | 8.0 | 0.00 | 0.00 | 0.00 | 48 | 1004.7 |
| 20260509170506 | 58 | 266 | 5.0 | 10.0 | 0.00 | 0.00 | 0.00 | 46 | 1004.7 |
| 20260509170006 | 58 | 284 | 5.0 | 9.0 | 0.00 | 0.00 | 0.00 | 49 | 1004.7 |
| 20260509165506 | 58 | 302 | 2.0 | 10.0 | 0.00 | 0.00 | 0.00 | 49 | 1004.7 |
| 20260509165006 | 58 | 277 | 3.0 | 8.0 | 0.00 | 0.00 | 0.00 | 50 | 1004.7 |
| 20260509164506 | 58 | 312 | 4.0 | 12.0 | 0.00 | 0.00 | 0.00 | 52 | 1004.6 |
| 20260509164005 | 57 | 296 | 3.0 | 8.0 | 0.00 | 0.00 | 0.00 | 53 | 1004.7 |
| 20260509163506 | 58 | 287 | 2.0 | 7.0 | 0.00 | 0.00 | 0.00 | 52 | 1004.5 |
| 20260509162505 | 57 | 262 | 5.0 | 12.0 | 0.00 | 0.00 | 0.00 | 52 | 1004.6 |
| 20260509162006 | 58 | 269 | 3.0 | 10.0 | 0.00 | 0.00 | 0.00 | 56 | 1004.5 |
| 20260509161506 | 57 | 282 | 2.0 | 8.0 | 0.00 | 0.00 | 0.00 | 57 | 1004.4 |
| 20260509161006 | 57 | 279 | 3.0 | 9.0 | 0.00 | 0.00 | 0.00 | 56 | 1004.4 |
| 20260509160505 | 57 | 290 | 5.0 | 10.0 | 0.00 | 0.00 | 0.00 | 55 | 1004.3 |
| 20260509155506 | 56 | 297 | 2.0 | 8.0 | 0.00 | 0.00 | 0.00 | 59 | 1004.2 |
| 20260509154006 | 57 | 297 | 2.0 | 10.0 | 0.00 | 0.00 | 0.00 | 60 | 1004.1 |
| 20260509153506 | 56 | 285 | 3.0 | 10.0 | 0.00 | 0.00 | 0.00 | 61 | 1004.0 |
| 20260509153006 | 56 | 295 | 4.0 | 9.0 | 0.00 | 0.00 | 0.00 | 62 | 1004.0 |
| 20260509152006 | 56 | 296 | 4.0 | 8.0 | 0.00 | 0.00 | 0.00 | 63 | 1003.7 |
| 20260509151506 | 55 | 296 | 2.0 | 9.0 | 0.00 | 0.00 | 0.00 | 63 | 1003.7 |
| 20260509151006 | 55 | 303 | 4.0 | 10.0 | 0.00 | 0.00 | 0.00 | 62 | 1003.6 |
| 20260509150006 | 55 | 310 | 3.0 | 9.0 | 0.00 | 0.00 | 0.00 | 68 | 1003.4 |
| 20260509145506 | 55 | 310 | 3.0 | 8.0 | 0.00 | 0.00 | 0.00 | 67 | 1003.3 |
| 20260509144006 | 56 | 293 | 4.0 | 8.0 | 0.00 | 0.00 | 0.00 | 68 | 1002.8 |
| 20260509143506 | 55 | 298 | 3.0 | 10.0 | 0.00 | 0.00 | 0.00 | 69 | 1002.7 |
| 20260509143006 | 55 | 277 | 2.0 | 10.0 | 0.00 | 0.00 | 0.00 | 69 | 1002.7 |
| 20260509142506 | 55 | 300 | 2.0 | 10.0 | 0.00 | 0.00 | 0.00 | 70 | 1002.7 |
| 20260509141505 | 55 | 302 | 5.0 | 9.0 | 0.00 | 0.00 | 0.00 | 67 | 1002.6 |
| 20260509141006 | 55 | 280 | 4.0 | 10.0 | 0.00 | 0.00 | 0.00 | 68 | 1002.5 |
| 20260509140505 | 55 | 278 | 3.0 | 12.0 | 0.00 | 0.00 | 0.00 | 67 | 1002.6 |
| 20260509140006 | 55 | 286 | 5.0 | 14.0 | 0.00 | 0.00 | 0.00 | 66 | 1002.5 |
| 20260509135506 | 55 | 286 | 2.0 | 7.0 | 0.00 | 0.00 | 0.00 | 68 | 1002.3 |
| 20260509135006 | 56 | 294 | 5.0 | 10.0 | 0.00 | 0.00 | 0.00 | 67 | 1002.1 |
| 20260509134506 | 55 | 289 | 3.0 | 12.0 | 0.00 | 0.00 | 0.00 | 68 | 1002.1 |
| 20260509134006 | 55 | 265 | 4.0 | 12.0 | 0.00 | 0.00 | 0.00 | 66 | 1002.1 |
| 20260509133506 | 56 | 299 | 3.0 | 8.0 | 0.00 | 0.00 | 0.00 | 67 | 1002.1 |